Location: Eexterzandvoort
(53.0303°N, 6.7884°E)
Time: 17:06:19
(UTC+00:00)

COSMOS 2406 - Pass Details

Date: 19 May 2025
Orbit: 845 x 859 km, 71.0° (Epoch: 16 June)

Event Time Altitude Azimuth Distance (km) Brightness Sun altitude
Exits shadow 23:41:07 - 238° (WSW) 2,565 5.4 -16.9°
Reaches altitude 10° 23:41:22 10° 238° (WSW) 2,473 5.3 -16.9°
Maximum altitude 23:46:49 46° 312° (NW) 1,136 4.1 -16.9°
Drops below altitude 10° 23:52:20 10° 25° (NNE) 2,495 6.8 -16.8°
Sets 23:54:55 0° 32° (NNE) 3,437 7.6 -16.8°
